Location: Unspecified
(43.4680°N, 87.1740°E)
Time: 20:24:42
(UTC+00:00)

Tiangong - Visible Passes

Search period start: 26 September 2021 00:00
Search period end: 06 October 2021 00:00
Orbit: 382 x 385 km, 41.5° (Epoch: 26 September)

Date Brightness Start Highest point End Pass type
(mag) Time Alt. Az. Time Alt. Az. Time Alt. Az.
26 Sep 3.4 22:26:29 14° S 22:27:20 16° SSE 22:29:20 10° ESE visible
27 Sep 2.3 23:01:47 16° SW 23:03:53 34° SSE 23:06:48 10° E visible
28 Sep 3.2 22:04:49 22° SE 22:04:49 22° SE 22:06:42 10° E visible
29 Sep 1.7 22:40:01 37° SSW 22:40:42 45° SSE 22:43:45 10° E visible
30 Sep 4.0 21:42:57 16° ESE 21:42:57 16° ESE 21:43:45 10° E visible
30 Sep 1.3 23:15:09 17° WSW 23:17:27 60° S 23:20:35 10° E visible
01 Oct 1.8 22:18:05 47° SE 22:18:05 47° SE 22:20:39 10° E visible
02 Oct 1.3 22:53:13 35° WSW 22:54:17 58° S 22:57:23 10° ESE visible
03 Oct 3.5 21:56:10 22° ESE 21:56:10 22° ESE 21:57:28 10° E visible
03 Oct 1.9 23:28:22 12° W 23:30:58 37° SSW 23:33:55 10° SE visible
04 Oct 1.6 22:31:22 47° SSE 22:31:22 47° SSE 22:34:07 10° ESE visible
05 Oct 2.4 23:06:37 22° SW 23:07:39 27° SSW 23:10:23 10° SE visible
